DW3765 Weather Reports


time (UTC)temp
F
wind
direction
speed
knots
gust
knots
rain 1hr
in
rain 24hr
in
rain mn
in
humidity
%
barometer
mb
20221203065642 63 223 2.6 6.1 0.00 0.08 0.00 94 1023.4
20221203065126 63 227 2.6 5.2 0.00 0.08 0.00 94 1023.4
20221203064624 63 227 2.6 7.0 0.00 0.08 0.00 94 1023.4
20221203064125 63 226 3.5 7.0 0.00 0.08 0.00 94 1023.5
20221203063632 63 213 2.6 7.8 0.00 0.08 0.00 94 1023.4
20221203063135 63 248 3.5 7.8 0.00 0.08 0.00 94 1023.4
20221203062642 63 229 3.5 6.1 0.00 0.08 0.00 94 1023.4
20221203062139 63 250 3.5 6.1 0.00 0.08 0.00 94 1023.4
20221203061626 63 221 0.9 6.1 0.00 0.08 0.00 94 1023.5
20221203061130 63 221 1.7 6.1 0.00 0.08 0.00 94 1023.5
20221203060637 63 258 0.9 7.8 0.00 0.08 0.00 94 1023.4
20221203060131 63 257 3.5 11.3 0.00 0.08 0.00 94 1023.3
20221203055623 63 216 5.2 12.2 0.00 0.10 0.08 94 1023.0
20221203055124 63 207 7.0 12.2 0.00 0.10 0.08 94 1022.9
20221203054646 63 215 6.1 12.2 0.00 0.10 0.08 94 1022.8
20221203054153 63 163 6.1 12.2 0.00 0.10 0.08 94 1022.8
20221203053709 63 177 6.1 13.9 0.00 0.10 0.08 94 1022.9
20221203053133 63 226 7.0 13.9 0.00 0.10 0.08 94 1022.8
20221203052648 63 213 7.0 12.2 0.00 0.10 0.08 94 1022.8
20221203051640 63 173 4.3 7.8 0.00 0.10 0.08 94 1022.9
20221203051142 63 223 3.5 7.8 0.00 0.10 0.08 94 1023.0
20221203050705 63 223 4.3 7.8 0.00 0.10 0.08 94 1022.9
20221203050159 63 203 3.5 7.8 0.00 0.10 0.08 94 1022.8
20221203045701 63 194 5.2 7.8 0.00 0.10 0.08 94 1022.9
20221203044647 63 219 2.6 7.0 0.00 0.10 0.08 93 1022.9
20221203043644 63 210 4.3 9.6 0.00 0.10 0.08 93 1022.8
20221203043155 63 223 4.3 9.6 0.00 0.10 0.08 93 1022.8
20221203042713 63 184 5.2 9.6 0.00 0.10 0.08 93 1022.7
20221203042209 63 205 5.2 11.3 0.00 0.10 0.08 93 1022.5
20221203041639 63 175 5.2 11.3 0.00 0.10 0.08 93 1022.6
20221203041155 63 191 6.1 10.4 0.00 0.10 0.08 93 1022.4
20221203040704 63 193 6.1 10.4 0.00 0.10 0.08 93 1022.4
20221203040203 63 192 3.5 7.8 0.00 0.10 0.08 93 1022.6
20221203035658 63 191 4.3 7.8 0.00 0.10 0.08 93 1022.6
20221203035207 63 186 4.3 7.0 0.00 0.10 0.08 93 1022.7
20221203034709 63 174 2.6 7.0 0.00 0.10 0.08 93 1022.7
20221203034207 63 211 3.5 7.0 0.00 0.10 0.08 93 1022.6
20221203033719 63 223 3.5 7.0 0.00 0.10 0.08 93 1022.6
20221203033144 63 210 3.5 6.1 0.00 0.10 0.08 93 1022.6
20221203032636 63 218 3.5 7.8 0.00 0.10 0.08 93 1022.5
20221203032158 63 194 3.5 7.8 0.00 0.10 0.08 93 1022.4
20221203031701 63 215 3.5 6.1 0.00 0.10 0.08 93 1022.5
20221203030632 63 198 2.6 5.2 0.00 0.10 0.08 93 1022.3
20221203030200 63 199 2.6 4.3 0.00 0.10 0.08 93 1022.1
20221203025718 63 199 2.6 6.1 0.00 0.10 0.08 93 1022.0
20221203025124 63 173 2.6 6.1 0.00 0.10 0.08 93 1022.0
20221203024646 63 212 2.6 5.2 0.00 0.10 0.08 93 1021.8
20221203024202 63 213 2.6 5.2 0.00 0.10 0.08 93 1021.8
20221203023713 63 206 2.6 6.1 0.00 0.10 0.08 93 1021.7
20221203023136 63 210 2.6 6.1 0.00 0.10 0.08 93 1021.8
20221203022655 63 175 2.6 6.1 0.00 0.10 0.08 93 1021.7
20221203022220 63 186 2.6 6.1 0.00 0.10 0.08 93 1021.6
20221203021634 63 169 4.3 6.1 0.00 0.10 0.08 93 1021.5
20221203021131 63 183 2.6 6.1 0.00 0.10 0.08 93 1021.4
20221203020658 63 174 3.5 6.1 0.00 0.10 0.08 93 1021.5
20221203020156 63 168 2.6 5.2 0.00 0.10 0.08 93 1021.5
20221203015725 63 184 2.6 6.1 0.00 0.10 0.08 93 1021.4
20221203015222 63 183 1.7 6.1 0.00 0.10 0.08 93 1021.3
20221203014645 63 202 1.7 6.1 0.00 0.10 0.08 93 1021.3
20221203014139 63 202 2.6 6.1 0.00 0.10 0.08 93 1021.2
20221203013710 63 183 0.0 0.0 0.00 0.10 0.08 93 1021.2
20221203013124 63 182 0.0 0.0 0.00 0.10 0.08 93 1021.1
20221203012646 63 182 0.0 0.0 0.00 0.10 0.08 93 1021.1
20221203012148 63 182 0.0 0.0 0.00 0.10 0.08 93 1021.0
20221203011718 63 182 0.0 0.0 0.00 0.10 0.08 93 1021.0
20221203011235 63 174 0.0 0.0 0.00 0.10 0.08 93 1020.9
20221203010627 63 174 0.0 0.0 0.00 0.10 0.08 93 1020.8
20221203010155 63 174 0.0 0.0 0.00 0.10 0.08 93 1020.8
20221203005716 63 174 0.0 0.0 0.00 0.11 0.08 93 1020.7
20221203005140 63 174 0.0 1.7 0.00 0.11 0.08 93 1020.7
20221203004700 63 174 0.9 3.5 0.00 0.11 0.08 93 1020.7
20221203004208 63 174 1.7 4.3 0.00 0.11 0.08 93 1020.7
20221203003623 63 174 1.7 4.3 0.00 0.11 0.08 93 1020.6
20221203003141 64 174 3.5 4.3 0.00 0.11 0.08 93 1020.5
20221203002131 64 190 1.7 6.1 0.00 0.11 0.08 93 1020.5
20221203001648 64 184 2.6 5.2 0.00 0.11 0.08 93 1020.4
20221203001213 64 182 2.6 5.2 0.00 0.11 0.08 93 1020.2
20221203000632 64 183 3.5 5.2 0.00 0.11 0.08 93 1020.1
20221203000159 64 172 2.6 5.2 0.00 0.11 0.08 93 1020.0
20221202235716 64 174 3.5 4.3 0.00 0.11 0.08 93 1020.1
20221202235132 64 172 1.7 5.2 0.00 0.11 0.08 93 1020.0
20221202234659 64 188 3.5 7.0 0.00 0.11 0.08 93 1019.9
20221202234210 64 186 3.5 7.0 0.00 0.11 0.08 93 1020.1
20221202233737 64 193 2.6 6.1 0.00 0.11 0.08 93 1019.9
20221202233128 64 196 2.6 5.2 0.00 0.11 0.08 93 1019.8
20221202232656 64 186 2.6 7.0 0.00 0.11 0.08 93 1019.8
20221202232215 64 185 3.5 7.0 0.00 0.11 0.08 93 1019.7
20221202231630 64 211 4.3 7.0 0.00 0.11 0.08 93 1019.7
20221202231243 64 197 2.6 6.1 0.00 0.11 0.08 93 1019.6
20221202230632 64 216 3.5 6.1 0.00 0.11 0.08 93 1019.6
20221202230202 64 214 3.5 6.1 0.00 0.11 0.08 93 1019.6
20221202225717 64 210 3.5 7.8 0.00 0.13 0.08 93 1019.5
20221202225130 64 213 3.5 7.8 0.00 0.13 0.08 93 1019.5
20221202224722 64 208 3.5 9.6 0.00 0.13 0.08 93 1019.4
20221202224220 64 200 4.3 9.6 0.00 0.13 0.08 93 1019.3
20221202223659 64 191 4.3 11.3 0.00 0.13 0.08 93 1019.3
20221202223157 64 219 4.3 12.2 0.00 0.13 0.08 93 1019.3
20221202222658 64 220 5.2 12.2 0.00 0.13 0.08 93 1019.2
20221202222159 64 217 2.6 10.4 0.00 0.13 0.08 93 1019.1
20221202221701 64 193 6.1 11.3 0.00 0.13 0.08 93 1019.1
20221202221214 64 209 7.0 11.3 0.00 0.13 0.08 93 1019.0
20221202220720 64 219 5.2 9.6 0.00 0.13 0.08 93 1019.0
20221202220138 64 198 5.2 9.6 0.00 0.13 0.08 93 1019.0
20221202215636 64 265 4.3 9.6 0.00 0.13 0.08 93 1018.9
20221202215148 64 236 4.3 10.4 0.00 0.13 0.08 94 1018.9
20221202214712 64 213 5.2 10.4 0.00 0.13 0.08 94 1019.0
20221202214232 64 187 5.2 9.6 0.00 0.13 0.08 94 1019.0
20221202213633 64 223 5.2 8.7 0.00 0.13 0.08 94 1019.0
20221202213151 64 221 5.2 10.4 0.00 0.13 0.08 94 1019.0
20221202212719 64 217 5.2 10.4 0.00 0.13 0.08 94 1019.0
20221202212219 64 221 4.3 12.2 0.00 0.13 0.08 94 1018.9
20221202211744 64 234 7.0 12.2 0.00 0.13 0.08 94 1018.9
20221202211219 64 225 3.5 12.2 0.00 0.13 0.08 94 1018.8
20221202210628 64 211 6.1 13.0 0.00 0.13 0.08 94 1018.8
20221202210156 64 225 4.3 11.3 0.00 0.13 0.08 94 1019.0
20221202205654 64 209 5.2 9.6 0.00 0.13 0.08 94 1018.9
20221202205202 64 210 3.5 7.8 0.00 0.13 0.08 94 1018.9
20221202204700 64 232 3.5 7.8 0.00 0.13 0.08 94 1018.9
20221202204220 64 247 4.3 12.2 0.00 0.13 0.08 94 1019.0
20221202203637 64 207 6.1 12.2 0.00 0.13 0.08 94 1019.1
20221202203151 64 240 3.5 7.0 0.00 0.13 0.08 94 1019.1
20221202202721 64 240 3.5 8.7 0.00 0.13 0.08 94 1019.2
20221202202134 64 204 4.3 8.7 0.00 0.13 0.08 94 1019.2
20221202201653 63 248 2.6 8.7 0.00 0.13 0.08 94 1019.1
20221202201222 63 178 5.2 8.7 0.00 0.13 0.08 94 1019.2
20221202200627 63 211 5.2 8.7 0.00 0.13 0.08 94 1019.3
20221202200156 63 225 4.3 9.6 0.00 0.13 0.08 94 1019.3
20221202195716 63 246 6.1 11.3 0.00 0.13 0.08 94 1019.3
20221202195242 63 219 5.2 11.3 0.00 0.13 0.08 94 1019.3
20221202194632 63 219 5.2 9.6 0.00 0.13 0.08 94 1019.4
20221202194145 63 233 5.2 9.6 0.00 0.13 0.08 94 1019.4
20221202193147 63 258 5.2 9.6 0.00 0.13 0.08 94 1019.3
20221202192707 63 221 5.2 9.6 0.00 0.13 0.08 94 1019.5
20221202192131 63 219 3.5 9.6 0.00 0.13 0.08 94 1019.5
20221202191652 63 233 4.3 13.0 0.00 0.13 0.08 94 1019.6
20221202190644 63 196 5.2 11.3 0.00 0.13 0.08 94 1019.6
20221202185648 63 223 6.1 9.6 0.00 0.13 0.08 94 1019.7
20221202185149 63 224 6.1 10.4 0.00 0.13 0.08 94 1019.8
20221202184719 63 175 6.1 11.3 0.00 0.13 0.08 94 1019.8
20221202184218 63 235 7.0 11.3 0.00 0.13 0.08 94 1019.8
20221202183627 63 211 5.2 8.7 0.00 0.13 0.08 94 1019.8
20221202183133 63 251 3.5 8.7 0.00 0.13 0.08 94 1019.9
20221202182659 63 209 6.1 9.6 0.00 0.13 0.08 94 1020.0
20221202182218 62 217 4.3 9.6 0.00 0.13 0.08 94 1020.1
20221202181640 62 217 3.5 7.0 0.01 0.13 0.08 94 1020.3
20221202181154 62 182 4.3 8.7 0.01 0.13 0.08 94 1020.4
20221202180147 62 194 2.6 10.4 0.01 0.13 0.08 94 1020.3
20221202175139 62 209 4.3 8.7 0.01 0.13 0.08 94 1020.6
20221202174140 62 191 4.3 10.4 0.01 0.13 0.08 94 1020.8
20221202173710 62 230 5.2 12.2 0.01 0.13 0.08 94 1020.8
20221202173127 62 216 6.1 12.2 0.01 0.13 0.08 94 1020.8
20221202172645 62 167 6.1 11.3 0.01 0.13 0.08 94 1020.7
20221202172212 62 201 5.2 11.3 0.01 0.13 0.08 94 1020.8
20221202171709 62 150 5.2 10.4 0.00 0.12 0.07 94 1020.7
20221202171128 62 179 6.1 9.6 0.00 0.12 0.07 94 1020.8
20221202170646 62 198 5.2 9.6 0.00 0.12 0.07 94 1020.8
20221202165646 62 215 3.5 9.6 0.00 0.12 0.07 94 1020.8
20221202165205 62 209 5.2 9.6 0.00 0.12 0.07 94 1020.9
20221202164625 62 201 5.2 11.3 0.00 0.12 0.07 94 1020.9
20221202164137 62 172 7.0 11.3 0.00 0.12 0.07 94 1021.0
20221202163705 61 177 5.2 10.4 0.00 0.12 0.07 94 1021.0
20221202163220 61 207 5.2 8.7 0.00 0.12 0.07 94 1021.0
20221202162735 60 214 4.3 7.0 0.00 0.12 0.07 94 1021.0
20221202162134 60 200 2.6 5.2 0.00 0.12 0.07 94 1021.0
20221202161648 59 198 3.5 6.1 0.00 0.12 0.07 94 1021.0
20221202160650 58 188 2.6 5.2 0.00 0.12 0.07 94 1021.0
20221202160144 58 185 0.9 5.2 0.00 0.12 0.07 94 1021.0
20221202155711 58 184 1.7 5.2 0.00 0.12 0.07 94 1021.0
20221202155124 57 184 0.9 4.3 0.00 0.12 0.07 94 1020.9
20221202154642 57 184 1.7 4.3 0.00 0.12 0.07 94 1020.9
20221202154211 57 185 1.7 4.3 0.00 0.12 0.07 94 1020.9
20221202153151 56 186 2.6 4.3 0.00 0.12 0.07 94 1021.0
20221202152650 56 182 0.9 4.3 0.00 0.12 0.07 94 1021.0
20221202152157 56 181 0.9 4.3 0.00 0.12 0.07 94 1020.9
20221202151653 56 181 2.6 6.1 0.00 0.12 0.07 94 1021.0
20221202150647 55 191 2.6 4.3 0.00 0.12 0.07 94 1020.9
20221202150205 55 211 0.0 3.5 0.00 0.12 0.07 94 1020.9
20221202145632 54 211 1.7 4.3 0.00 0.12 0.07 94 1020.9
20221202145148 54 211 0.9 4.3 0.00 0.12 0.07 94 1020.9
20221202144150 54 211 0.9 1.7 0.00 0.12 0.07 94 1020.8
20221202143646 53 211 0.9 3.5 0.00 0.12 0.07 94 1020.8
20221202143216 53 211 0.9 3.5 0.00 0.12 0.07 94 1020.8
20221202142712 53 211 0.0 1.7 0.00 0.12 0.07 94 1020.8
20221202142137 53 211 0.0 1.7 0.01 0.12 0.07 94 1020.8
20221202141743 52 211 0.0 0.9 0.01 0.12 0.07 94 1020.8
20221202141135 52 211 0.0 1.7 0.01 0.12 0.07 94 1020.8
20221202140703 52 211 0.0 1.7 0.01 0.12 0.07 94 1020.8
20221202140200 52 211 0.0 0.9 0.01 0.12 0.07 94 1020.8
20221202135626 52 211 0.0 0.9 0.01 0.12 0.07 94 1020.9
20221202135229 52 211 0.0 0.9 0.01 0.12 0.07 94 1020.8
20221202134708 52 211 0.0 0.0 0.01 0.12 0.07 94 1020.8
20221202134208 52 211 0.0 0.0 0.01 0.12 0.07 94 1020.8
20221202133703 52 211 0.0 0.9 0.01 0.12 0.07 94 1020.7
20221202133202 52 211 0.0 1.7 0.01 0.12 0.07 94 1020.7
20221202132704 52 211 0.0 1.7 0.01 0.12 0.07 94 1020.6
20221202132124 52 321 0.0 0.0 0.00 0.11 0.06 94 1020.7
20221202131642 52 321 0.0 0.0 0.00 0.11 0.06 94 1020.7
20221202131141 52 321 0.0 0.0 0.00 0.11 0.06 94 1020.6
20221202130652 52 321 0.0 0.0 0.00 0.11 0.06 94 1020.6
20221202125631 52 321 0.0 0.0 0.00 0.11 0.06 94 1020.4
20221202125145 52 321 0.0 0.0 0.00 0.11 0.06 94 1020.3
20221202124653 52 321 0.0 0.0 0.00 0.11 0.06 94 1020.2
20221202124152 52 321 0.0 0.0 0.00 0.11 0.06 94 1020.1
20221202123630 51 321 0.0 0.0 0.00 0.11 0.06 93 1020.1
20221202123130 51 321 0.0 0.0 0.00 0.11 0.06 93 1020.0
20221202122629 51 321 0.0 0.0 0.00 0.11 0.06 93 1020.1
20221202122155 51 321 0.0 0.0 0.00 0.11 0.06 93 1020.1
20221202121648 51 321 0.0 0.0 0.00 0.11 0.06 93 1020.1
20221202121206 51 321 0.0 0.0 0.00 0.11 0.06 93 1020.1
20221202120712 51 321 0.0 0.0 0.00 0.11 0.06 93 1020.1
20221202120124 51 321 0.0 0.0 0.00 0.11 0.06 93 1020.2
20221202115629 51 321 0.0 0.0 0.00 0.11 0.06 93 1020.1
20221202115148 51 321 0.0 0.0 0.00 0.11 0.06 94 1020.1
20221202114714 51 321 0.0 0.0 0.00 0.11 0.06 94 1020.1
20221202114128 51 321 0.0 0.0 0.00 0.11 0.06 94 1020.2
20221202113650 51 321 0.0 0.0 0.00 0.11 0.06 94 1020.2
20221202113214 51 321 0.0 0.0 0.00 0.11 0.06 94 1020.2
20221202112627 51 321 0.0 0.0 0.01 0.11 0.06 94 1020.3
20221202112154 51 321 0.0 0.0 0.01 0.11 0.06 93 1020.3
20221202111649 51 321 0.0 0.0 0.01 0.11 0.06 93 1020.3
20221202110648 51 321 0.0 0.0 0.01 0.11 0.06 93 1020.3
20221202105647 51 321 0.0 0.0 0.01 0.11 0.06 93 1020.4
20221202105143 51 321 0.0 0.0 0.01 0.11 0.06 93 1020.5
20221202104713 51 321 0.0 0.0 0.01 0.11 0.06 93 1020.5
20221202104124 51 321 0.0 0.0 0.01 0.11 0.06 93 1020.4
20221202103645 51 321 0.0 0.0 0.01 0.11 0.06 93 1020.6
20221202103144 50 321 0.0 0.0 0.00 0.10 0.05 93 1020.7
20221202102703 50 321 0.0 0.0 0.01 0.10 0.05 93 1020.8
20221202101643 50 321 0.0 0.0 0.01 0.10 0.05 93 1020.8
20221202101159 50 321 0.0 0.0 0.01 0.10 0.05 93 1020.8
20221202100701 50 321 0.0 0.0 0.01 0.10 0.05 93 1020.8
20221202100125 50 321 0.0 0.0 0.01 0.10 0.05 93 1020.9
20221202095645 50 321 0.0 0.0 0.01 0.10 0.05 93 1020.8
20221202095212 50 321 0.0 0.0 0.01 0.10 0.05 93 1020.9
20221202094626 50 321 0.0 0.0 0.01 0.10 0.05 93 1020.9
20221202094155 50 321 0.0 0.9 0.01 0.10 0.05 93 1020.8
20221202093715 50 321 0.0 0.9 0.01 0.10 0.05 93 1020.9
20221202093203 50 321 0.0 1.7 0.01 0.10 0.05 93 1020.7
20221202092721 50 321 0.0 1.7 0.00 0.09 0.04 93 1020.8
20221202092136 50 321 0.0 3.5 0.00 0.09 0.04 93 1020.8
20221202091704 50 321 0.9 4.3 0.00 0.09 0.04 93 1020.8
20221202091204 50 321 1.7 4.3 0.01 0.09 0.04 93 1020.8
20221202090733 50 323 0.0 4.3 0.01 0.09 0.04 93 1020.8
20221202090127 51 326 0.0 0.0 0.01 0.09 0.04 93 1020.7
20221202085634 51 326 0.0 0.0 0.01 0.09 0.04 93 1020.7
20221202085153 51 326 0.0 0.0 0.01 0.09 0.04 93 1020.8
20221202084719 51 326 0.0 0.0 0.01 0.09 0.04 93 1020.8
20221202084133 51 326 0.0 0.0 0.02 0.09 0.04 93 1020.9
20221202083649 51 326 0.0 0.0 0.02 0.09 0.04 93 1020.9
20221202083206 51 326 0.0 0.0 0.02 0.09 0.04 93 1021.0
20221202082624 51 326 0.0 0.0 0.02 0.09 0.04 93 1021.0
20221202082129 51 326 0.0 0.0 0.02 0.09 0.04 93 1021.0
20221202081646 51 326 0.0 0.9 0.03 0.09 0.04 93 1021.1
20221202081153 51 326 0.0 1.7 0.02 0.08 0.03 93 1021.2
20221202080140 51 326 0.0 0.0 0.02 0.08 0.03 93 1021.3
20221202075627 51 326 0.0 1.7 0.02 0.08 0.03 93 1021.3
20221202075124 51 326 0.9 1.7 0.03 0.08 0.03 93 1021.4
20221202074630 51 326 0.0 1.7 0.03 0.08 0.03 93 1021.4
20221202074134 50 326 0.0 3.5 0.02 0.07 0.02 93 1021.5
20221202073640 50 326 0.9 3.5 0.02 0.07 0.02 93 1021.6
20221202073142 50 326 1.7 3.5 0.02 0.07 0.02 93 1021.8
20221202072639 50 326 0.0 0.0 0.02 0.07 0.02 93 1021.8
20221202072145 50 326 0.0 0.0 0.02 0.07 0.02 93 1021.7
20221202071630 50 15 0.0 0.0 0.01 0.06 0.01 93 1021.6
20221202071135 50 15 0.0 0.0 0.01 0.06 0.01 93 1021.8
20221202070642 50 15 0.0 0.0 0.01 0.06 0.01 93 1021.8
20221202070147 50 15 0.0 0.0 0.01 0.06 0.01 93 1021.9